Location: Barnston
(51.8500°N, 0.4000°E)
Time: 11:33:45
(UTC+00:00)

Cosmos 1833 - Pass Details

Date: 26 September 2023
Orbit: 833 x 865 km, 70.9° (Epoch: 10 December)

Event Time Altitude Azimuth Distance (km) Brightness Sun altitude
Exits shadow 04:49:58 - 219° (SW) 2,954 6.6 -10.1°
Reaches altitude 10° 04:51:17 10° 221° (SW) 2,455 6.2 -9.9°
Maximum altitude 04:56:53 68° 304° (NW) 904 4.2 -9.1°
Drops below altitude 10° 05:02:30 10° 28° (NNE) 2,456 7.2 -8.2°
Sets 05:04:58 0° 31° (NNE) 3,393 8.0 -7.8°
